Washington, VA

4:18 AM EDT on May 25, 2018 (GMT -0400)
Ronald Reagan Washington National

Weather History for KDCA - March, 2012

Change the Weather History Date:

Saturday, March 3, 2012

  Actual Average Record
Temperature  
Mean Temperature 56 °F 43 °F  
Max Temperature 63 °F 51 °F 79 °F (1923)
Min Temperature 48 °F 34 °F 11 °F (1925)
Degree Days  
Heating Degree Days 9 22  
Month to date heating degree days 33 68  
Since 1 July heating degree days 2582 3176  
Cooling Degree Days 0 0  
Month to date cooling degree days 0 0  
Year to date cooling degree days 0 0  
Growing Degree Days 4 (Base 50)    
Moisture  
Dew Point 39 °F    
Average Humidity 56    
Maximum Humidity 93    
Minimum Humidity 19    
Precipitation  
Precipitation 0.16 in 0.09 in 1.75 in (1909)
Month to date precipitation 0.55 0.28  
Year to date precipitation 5.07 5.71  
Snow  
Snow 0.00 in 0.10 in 7.10 in (1960)
Month to date snowfall 0.0 0.3  
Since 1 July snowfall 2.0 14.4  
Snow Depth 0.00 in    
Sea Level Pressure  
Sea Level Pressure 29.63 in    
Wind  
Wind Speed 8 mph (WSW)    
Max Wind Speed 21 mph    
Max Gust Speed 29 mph    
Visibility 8 miles    
Events Rain    
T = Trace of Precipitation, MM = Missing Value Source: NWS Daily Summary

Daily Weather History Graph

Daily Weather History Graph

Search for Another Location

Airport or City:

Astronomy

Mar. 03, 2012 Rise Set
Actual Time 6:36 AM EST 6:03 PM EST
Civil Twilight 6:10 AM EST 6:30 PM EST
Nautical Twilight 5:39 AM EST 7:01 PM EST
Astronomical Twilight 5:08 AM EST 7:32 PM EST
Moon 1:13 PM EST (3/3) 3:10 AM EST (3/3)
Length of Visible Light 12h 19m
Length of Day
11h 26m
Waxing Gibbous, 75% of the Moon is Illuminated
Mar 3
Waxing Gibbous
Mar 8
Full
Mar 14
Last Quarter
Mar 22
New
Mar 30
First Quarter

Hourly Weather History & Observations

Time (EST) Temp. Dew Point Humidity Pressure Visibility Wind Dir Wind Speed Gust Speed Precip Events Conditions
12:13 AM 48.2 °F 46.4 °F 93% 29.69 in 4.0 mi ESE 4.6 mph - 0.00 in   Overcast
12:29 AM 48.2 °F 46.4 °F 93% 29.71 in 5.0 mi Calm Calm - 0.00 in   Light Drizzle
12:52 AM 48.0 °F 46.0 °F 93% 29.70 in 3.0 mi South 3.5 mph - 0.01 in Rain Light Rain
1:17 AM 48.2 °F 46.4 °F 93% 29.67 in 3.0 mi South 4.6 mph - 0.01 in   Light Drizzle
1:30 AM 48.2 °F 46.4 °F 93% 29.65 in 2.0 mi South 3.5 mph - 0.03 in Rain Rain
1:52 AM 48.0 °F 46.0 °F 93% 29.64 in 2.5 mi South 6.9 mph - 0.04 in   Overcast
2:14 AM 48.2 °F 46.4 °F 93% 29.61 in 3.0 mi South 5.8 mph - N/A   Mostly Cloudy
2:39 AM 48.2 °F 46.4 °F 93% 29.61 in 3.0 mi SSW 6.9 mph - N/A   Overcast
2:52 AM 48.0 °F 46.0 °F 93% 29.60 in 3.0 mi SSW 8.1 mph - N/A   Overcast
3:52 AM 48.9 °F 46.0 °F 90% 29.57 in 4.0 mi West 4.6 mph - N/A   Mostly Cloudy
4:20 AM 48.2 °F 46.4 °F 93% 29.56 in 10.0 mi West 3.5 mph - N/A   Overcast
4:52 AM 48.9 °F 46.0 °F 90% 29.55 in 10.0 mi SW 3.5 mph - N/A   Overcast
5:02 AM 48.2 °F 46.4 °F 93% 29.55 in 10.0 mi SW 3.5 mph - N/A   Overcast
5:52 AM 48.2 °F 46.4 °F 93% 29.58 in 10.0 mi SW 8.1 mph - N/A Rain Light Rain
6:23 AM 48.2 °F 46.4 °F 93% 29.57 in 7.0 mi SSW 5.8 mph - 0.01 in Rain Light Rain
6:37 AM 48.2 °F 46.4 °F 93% 29.57 in 10.0 mi SW 5.8 mph - 0.01 in   Overcast
6:52 AM 48.9 °F 46.9 °F 93% 29.57 in 10.0 mi South 4.6 mph - 0.01 in   Overcast
7:52 AM 50.0 °F 46.9 °F 89% 29.60 in 8.0 mi WSW 4.6 mph - 0.00 in Rain Light Rain
7:57 AM 50.0 °F 46.4 °F 87% 29.59 in 4.0 mi SSW 3.5 mph - 0.01 in Rain Rain
8:28 AM 50.0 °F 46.4 °F 87% 29.60 in 6.0 mi South 3.5 mph - 0.09 in Rain Light Rain
8:52 AM 51.1 °F 48.0 °F 89% 29.60 in 10.0 mi NW 5.8 mph - 0.10 in   Overcast
9:06 AM 51.8 °F 48.2 °F 88% 29.60 in 10.0 mi Calm Calm - N/A   Overcast
9:14 AM 51.8 °F 48.2 °F 88% 29.60 in 10.0 mi Calm Calm - N/A   Overcast
9:52 AM 52.0 °F 48.0 °F 86% 29.61 in 10.0 mi WSW 3.5 mph - N/A   Overcast
10:52 AM 54.0 °F 43.0 °F 66% 29.63 in 10.0 mi NNW 10.4 mph - N/A   Overcast
11:52 AM 55.9 °F 37.9 °F 51% 29.64 in 10.0 mi NNW 11.5 mph 21.9 mph N/A   Mostly Cloudy
12:52 PM 57.0 °F 35.1 °F 44% 29.64 in 10.0 mi WNW 15.0 mph 19.6 mph N/A   Mostly Cloudy
1:52 PM 59.0 °F 26.1 °F 28% 29.61 in 10.0 mi West 12.7 mph 23.0 mph N/A   Scattered Clouds
2:52 PM 61.0 °F 26.1 °F 26% 29.61 in 10.0 mi WNW 12.7 mph - N/A   Scattered Clouds
3:52 PM 61.0 °F 23.0 °F 23% 29.62 in 10.0 mi WNW 13.8 mph 18.4 mph N/A   Mostly Cloudy
4:52 PM 61.0 °F 24.1 °F 24% 29.63 in 10.0 mi West 10.4 mph - N/A   Mostly Cloudy
5:52 PM 57.9 °F 28.9 °F 33% 29.65 in 10.0 mi SW 6.9 mph - N/A   Mostly Cloudy
6:52 PM 55.9 °F 25.0 °F 30% 29.68 in 10.0 mi NNW 5.8 mph - N/A   Mostly Cloudy
7:52 PM 57.0 °F 16.0 °F 20% 29.70 in 10.0 mi NW 13.8 mph - N/A   Mostly Cloudy
8:52 PM 55.0 °F 16.0 °F 22% 29.73 in 10.0 mi WNW 5.8 mph - N/A   Mostly Cloudy
9:52 PM 53.1 °F 18.0 °F 25% 29.72 in 10.0 mi Variable 4.6 mph - N/A   Mostly Cloudy
10:52 PM 52.0 °F 21.0 °F 30% 29.69 in 10.0 mi NNW 15.0 mph - N/A   Overcast
11:52 PM 50.0 °F 23.0 °F 35% 29.74 in 10.0 mi NNW 8.1 mph - N/A   Overcast